TimeEDT,TemperatureF,Dew PointF,Humidity,Sea Level PressureIn,VisibilityMPH,Wind Direction,Wind SpeedMPH,Gust SpeedMPH,PrecipitationIn,Events,Conditions,WindDirDegrees,DateUTC
12:15 AM,50.0,28.4,43,30.20,10.0,North,10.4,-,N/A,,Overcast,350,2013-04-03 04:15:00
12:35 AM,48.2,28.4,46,30.20,10.0,North,6.9,-,N/A,,Overcast,350,2013-04-03 04:35:00
12:55 AM,48.2,30.2,50,30.20,10.0,North,8.1,-,N/A,,Overcast,350,2013-04-03 04:55:00
1:15 AM,46.4,30.2,53,30.20,10.0,North,10.4,16.1,N/A,,Overcast,350,2013-04-03 05:15:00
1:35 AM,46.4,30.2,53,30.19,10.0,North,6.9,-,N/A,,Mostly Cloudy,350,2013-04-03 05:35:00
1:55 AM,46.4,30.2,53,30.18,10.0,North,8.1,-,N/A,,Mostly Cloudy,360,2013-04-03 05:55:00
2:15 AM,46.4,30.2,53,30.18,10.0,NNW,8.1,-,N/A,,Mostly Cloudy,340,2013-04-03 06:15:00
2:35 AM,46.4,30.2,53,30.18,10.0,NNW,8.1,-,N/A,,Mostly Cloudy,330,2013-04-03 06:35:00
2:55 AM,46.4,30.2,53,30.19,10.0,NNW,5.8,-,N/A,,Overcast,340,2013-04-03 06:55:00
3:15 AM,44.6,28.4,53,30.18,10.0,NNW,9.2,-,N/A,,Mostly Cloudy,340,2013-04-03 07:15:00
3:35 AM,44.6,28.4,53,30.17,10.0,NNW,9.2,-,N/A,,Scattered Clouds,340,2013-04-03 07:35:00
3:55 AM,44.6,28.4,53,30.15,10.0,North,10.4,-,N/A,,Mostly Cloudy,350,2013-04-03 07:55:00
4:15 AM,44.6,28.4,53,30.13,10.0,North,11.5,16.1,N/A,,Mostly Cloudy,350,2013-04-03 08:15:00
4:35 AM,44.6,28.4,53,30.12,10.0,North,8.1,18.4,N/A,,Scattered Clouds,350,2013-04-03 08:35:00
4:55 AM,42.8,28.4,57,30.14,10.0,NNW,12.7,16.1,N/A,,Clear,340,2013-04-03 08:55:00
5:15 AM,42.8,28.4,57,30.13,10.0,NNW,9.2,-,N/A,,Clear,340,2013-04-03 09:15:00
5:35 AM,42.8,26.6,53,30.14,10.0,NNW,10.4,17.3,N/A,,Scattered Clouds,330,2013-04-03 09:35:00
5:55 AM,42.8,26.6,53,30.15,10.0,NNW,9.2,-,N/A,,Mostly Cloudy,330,2013-04-03 09:55:00
6:15 AM,42.8,26.6,53,30.15,10.0,NNW,10.4,-,N/A,,Overcast,340,2013-04-03 10:15:00
6:35 AM,42.8,26.6,53,30.17,10.0,NNW,10.4,16.1,N/A,,Overcast,340,2013-04-03 10:35:00
6:55 AM,42.8,26.6,53,30.18,10.0,North,6.9,-,N/A,,Overcast,360,2013-04-03 10:55:00
7:15 AM,42.8,26.6,53,30.18,10.0,North,8.1,-,N/A,,Overcast,350,2013-04-03 11:15:00
7:35 AM,42.8,26.6,53,30.20,10.0,North,4.6,-,N/A,,Mostly Cloudy,360,2013-04-03 11:35:00
7:55 AM,42.8,26.6,53,30.20,10.0,North,6.9,-,N/A,,Overcast,350,2013-04-03 11:55:00
8:15 AM,42.8,26.6,53,30.20,10.0,North,8.1,-,N/A,,Overcast,350,2013-04-03 12:15:00
8:35 AM,42.8,26.6,53,30.20,10.0,North,8.1,-,N/A,,Overcast,360,2013-04-03 12:35:00
8:55 AM,42.8,26.6,53,30.20,10.0,North,8.1,16.1,N/A,,Overcast,10,2013-04-03 12:55:00
9:15 AM,44.6,26.6,49,30.21,10.0,North,6.9,-,N/A,,Mostly Cloudy,360,2013-04-03 13:15:00
9:35 AM,44.6,26.6,49,30.21,10.0,NNW,11.5,-,N/A,,Clear,340,2013-04-03 13:35:00
9:55 AM,46.4,26.6,46,30.22,10.0,NNW,9.2,-,N/A,,Clear,340,2013-04-03 13:55:00
10:15 AM,46.4,26.6,46,30.21,10.0,North,6.9,-,N/A,,Clear,350,2013-04-03 14:15:00
10:35 AM,46.4,28.4,50,30.22,10.0,North,8.1,-,N/A,,Clear,350,2013-04-03 14:35:00
10:55 AM,48.2,28.4,46,30.22,10.0,North,6.9,-,N/A,,Clear,360,2013-04-03 14:55:00
11:15 AM,50.0,28.4,43,30.22,10.0,NNW,8.1,-,N/A,,Clear,340,2013-04-03 15:15:00
11:35 AM,50.0,28.4,43,30.22,10.0,NW,5.8,-,N/A,,Clear,320,2013-04-03 15:35:00
11:55 AM,51.8,30.2,44,30.22,10.0,NNW,5.8,-,N/A,,Clear,340,2013-04-03 15:55:00
12:15 PM,51.8,30.2,44,30.21,10.0,North,4.6,-,N/A,,Clear,10,2013-04-03 16:15:00
12:35 PM,53.6,30.2,41,30.21,10.0,NNE,5.8,-,N/A,,Clear,20,2013-04-03 16:35:00
12:55 PM,55.4,32.0,41,30.20,10.0,North,4.6,-,N/A,,Clear,350,2013-04-03 16:55:00
1:15 PM,55.4,32.0,41,30.19,10.0,NW,6.9,-,N/A,,Scattered Clouds,320,2013-04-03 17:15:00
1:35 PM,55.4,32.0,41,30.19,10.0,NNW,8.1,-,N/A,,Mostly Cloudy,340,2013-04-03 17:35:00
2:15 PM,57.2,32.0,38,30.19,10.0,NNW,8.1,-,N/A,,Scattered Clouds,330,2013-04-03 18:15:00
2:35 PM,57.2,32.0,38,30.20,10.0,NNW,6.9,-,N/A,,Scattered Clouds,340,2013-04-03 18:35:00
2:55 PM,55.4,32.0,41,30.19,10.0,North,5.8,-,N/A,,Mostly Cloudy,360,2013-04-03 18:55:00
3:15 PM,55.4,32.0,41,30.19,10.0,NNW,6.9,-,N/A,,Overcast,340,2013-04-03 19:15:00
3:35 PM,55.4,30.2,38,30.19,10.0,NNW,10.4,-,N/A,,Overcast,340,2013-04-03 19:35:00
3:55 PM,55.4,32.0,41,30.18,10.0,NNW,6.9,-,N/A,,Overcast,340,2013-04-03 19:55:00
4:15 PM,55.4,32.0,41,30.17,10.0,North,8.1,-,N/A,,Mostly Cloudy,360,2013-04-03 20:15:00
4:35 PM,55.4,30.2,38,30.17,10.0,North,9.2,-,N/A,,Mostly Cloudy,360,2013-04-03 20:35:00
4:55 PM,55.4,30.2,38,30.17,10.0,North,8.1,-,N/A,,Overcast,10,2013-04-03 20:55:00
5:15 PM,55.4,30.2,38,30.16,10.0,North,10.4,-,N/A,,Overcast,360,2013-04-03 21:15:00
5:35 PM,55.4,32.0,41,30.15,10.0,North,5.8,9.2,N/A,,Mostly Cloudy,360,2013-04-03 21:35:00
5:55 PM,55.4,30.2,38,30.14,10.0,North,13.8,17.3,N/A,,Mostly Cloudy,350,2013-04-03 21:55:00
6:15 PM,55.4,30.2,38,30.14,10.0,North,10.4,16.1,N/A,,Scattered Clouds,350,2013-04-03 22:15:00
6:35 PM,53.6,30.2,41,30.12,10.0,North,8.1,-,N/A,,Scattered Clouds,350,2013-04-03 22:35:00
6:55 PM,53.6,30.2,41,30.12,10.0,North,9.2,-,N/A,,Scattered Clouds,360,2013-04-03 22:55:00
7:15 PM,53.6,30.2,41,30.14,10.0,North,8.1,16.1,N/A,,Mostly Cloudy,350,2013-04-03 23:15:00
7:35 PM,53.6,30.2,41,30.14,10.0,North,6.9,-,N/A,,Overcast,360,2013-04-03 23:35:00
7:55 PM,53.6,30.2,41,30.15,10.0,North,6.9,-,N/A,,Overcast,350,2013-04-03 23:55:00
8:15 PM,53.6,30.2,41,30.16,10.0,North,3.5,-,N/A,,Light Drizzle,350,2013-04-04 00:15:00
8:35 PM,53.6,30.2,41,30.17,10.0,Calm,Calm,-,N/A,,Overcast,0,2013-04-04 00:35:00
8:55 PM,51.8,32.0,47,30.17,10.0,Calm,Calm,-,N/A,Rain,Light Rain,0,2013-04-04 00:55:00
9:15 PM,50.0,35.6,58,30.18,10.0,SSE,8.1,-,N/A,Rain,Rain,160,2013-04-04 01:15:00
9:35 PM,46.4,41.0,81,30.19,10.0,South,3.5,-,N/A,Rain,Light Rain,180,2013-04-04 01:35:00
9:55 PM,44.6,42.8,93,30.20,10.0,Calm,Calm,-,N/A,Rain,Light Rain,0,2013-04-04 01:55:00
10:15 PM,44.6,44.6,100,30.19,7.0,Calm,Calm,-,N/A,Rain,Light Rain,0,2013-04-04 02:15:00
10:35 PM,44.6,44.6,100,30.19,10.0,Calm,Calm,-,N/A,Rain,Light Rain,0,2013-04-04 02:35:00
10:55 PM,44.6,44.6,100,30.18,10.0,Calm,Calm,-,N/A,Rain,Light Rain,0,2013-04-04 02:55:00
11:15 PM,44.6,44.6,100,30.18,10.0,Calm,Calm,-,N/A,Rain,Light Rain,0,2013-04-04 03:15:00
11:35 PM,44.6,44.6,100,30.17,10.0,Calm,Calm,-,N/A,Rain,Light Rain,0,2013-04-04 03:35:00
11:55 PM,44.6,44.6,100,30.17,10.0,Calm,Calm,-,N/A,,Drizzle,0,2013-04-04 03:55:00